Location: Bydgoszcz
(53.1640°N, 17.9142°E)
Time: 09:23:33
(UTC+02:00)

PCSat - Pass Details

Date: 22 April 2024
Orbit: 783 x 792 km, 67.1° (Epoch: 24 May)

Event Time Altitude Azimuth Distance (km) Brightness Sun altitude
Rises 02:55:51 0° 319° (NW) 3,300 13.0 -19.0°
Reaches altitude 10° 02:58:26 10° 327° (NNW) 2,369 12.3 -18.7°
Maximum altitude 03:03:32 39° 36° (NE) 1,171 11.0 -18.3°
Drops below altitude 10° 03:08:37 10° 105° (ESE) 2,361 12.3 -17.9°
Sets 03:11:10 0° 113° (ESE) 3,288 13.0 -17.6°
